Zurück zum Katalog

FENGYUN 1C DEB

LostSSO
NORAD 31465·DEBRIS·🇨🇳 China

Gestartet May 10, 1999 von Taiyuan Satellite Launch Center

Loading…

Nächste Überflüge (nächste 24 Stunden)

TLE

VeraltetSource: Space-Track

Epoche: Sep 5, 2023, 22:58 UTC

1 31465U 99025BVD 23248.95717410  .00003609  00000-0  20044-2 0  9997
2 31465  98.6191 305.7719 0122808  80.4205 281.0816 14.07948669836149

Verfolge FENGYUN 1C DEB in Echtzeit mit AllMySat

Download on the App Store